Location: Grange Rosano
(44.4500°N, 6.9667°E)
Time: 08:02:13
(UTC+00:00)

CZ-4C R/B - Pass Details

Date: 26 May 2022
Orbit: 581 x 1419 km, 63.4° (Epoch: 01 July)

Event Time Altitude Azimuth Distance (km) Brightness Sun altitude
Rises 00:14:48 0° 320° (NW) 3,881 6.2 -23.6°
Reaches altitude 10° 00:17:19 10° 317° (NW) 3,032 5.5 -23.5°
Maximum altitude 00:24:38 61° 239° (WSW) 1,439 3.1 -23.2°
Enters shadow 00:28:02 37° 177° (S) 1,959 3.5 -23.1°
